Flag for United Kingdom

Past Weather in Edinburgh, Scotland, United Kingdom — Yesterday and Last 2 Weeks

Now
59 °F

Partly sunny.


Feels Like: 58 °F
Forecast: 59 / 51 °F
Wind: 7 mph from West

Location: Edinburgh Airport

Current Time: Jul 4, 2020 at 5:25:31 pm

Latest Report: Jul 4, 2020 at 4:50 pm


Visibility: N/A

Pressure: 29.59 "Hg

Humidity: 77%

Dew Point: 52 °F

Location of EdinburghLocation

Past Weather in Edinburgh — Graph

°F

Edinburgh Temperature Yesterday

Maximum temperature yesterday: 61 °F (at 2:50 pm)
Minimum temperature yesterday: 48 °F (at 3:50 am)
Average temperature yesterday: 54 °F

High & Low Weather Summary for the Past Weeks

 TemperatureHumidityPressure
High79 °F (Jun 24, 2:50 pm)100% (Jun 19, 7:50 pm)30.18 "Hg (Jun 19, 7:50 pm)
Low45 °F (Jun 22, 3:50 am)43% (Jun 20, 3:50 pm)29.21 "Hg (Jun 28, 5:50 am)
Average58 °F84%29.74 "Hg
* Reported Jun 19 4:20 pm — Jul 4 4:20 pm, Edinburgh. Weather by CustomWeather, © 2020

Note: Actual official high and low records may vary slightly from our data, if they occured in-between our weather recording intervals... More about our weather records

Edinburgh Weather History for the Previous 24 Hours

Scroll right to see more
 ConditionsComfort  
Time TempWeatherWind HumidityBarometerVisibility
4:20 pm
Sat, Jul 4
59 °FPartly sunny.12 mph77%29.62 "HgN/A
3:50 pm61 °FPartly sunny.13 mph77%29.62 "HgN/A
3:20 pm59 °FPartly sunny.8 mph82%29.62 "HgN/A
2:50 pm59 °FLight rain. Mostly cloudy.10 mph82%29.62 "HgN/A
2:20 pm57 °FMostly cloudy.8 mph88%29.62 "HgN/A
1:50 pm57 °FLight rain. Mostly cloudy.8 mph88%29.62 "HgN/A
1:20 pm57 °FLight rain. Mostly cloudy.5 mph88%29.62 "HgN/A
12:50 pm55 °FLight rain. Mostly cloudy.3 mph94%29.62 "Hg4 mi
12:20 pm55 °FLight rain. Partly sunny.6 mph94%29.62 "Hg4 mi
11:50 am54 °FDrizzle. Partly sunny.7 mph94%29.62 "Hg4 mi
11:20 am55 °FLight rain. Partly sunny.7 mph88%29.62 "HgN/A
10:50 am55 °FLight rain. Overcast.7 mph88%29.62 "HgN/A
10:20 am57 °FLight rain. Mostly cloudy.7 mph77%29.62 "HgN/A
9:50 am57 °FPartly sunny.8 mph77%29.62 "HgN/A
9:20 am57 °FScattered clouds.7 mph77%29.62 "HgN/A
7:50 am54 °FSunny.6 mph94%29.62 "Hg10 mi
7:20 am54 °FSunny.5 mph94%29.62 "Hg10 mi
6:50 am52 °FSunny.7 mph94%29.62 "Hg10 mi
6:20 am50 °FSunny.5 mph100%29.62 "Hg10 mi
5:50 am50 °FSunny.3 mph94%29.62 "Hg10 mi
5:20 am50 °FSunny.3 mph94%29.62 "Hg10 mi
4:50 am50 °FSunny.2 mph94%29.62 "Hg10 mi
4:20 am50 °FClear.3 mph94%29.62 "Hg10 mi
3:50 am50 °FClear.3 mph94%29.62 "Hg10 mi
3:20 am50 °FClear.5 mph94%29.62 "Hg10 mi
2:50 am50 °FClear.2 mph94%29.62 "Hg10 mi
2:20 am50 °FClear.5 mph94%29.62 "Hg10 mi
1:50 am48 °FClear.3 mph100%29.62 "Hg10 mi
1:20 am50 °FClear.5 mph94%29.65 "Hg10 mi
12:50 am48 °FClear.3 mph100%29.65 "Hg10 mi
12:20 am48 °FClear.3 mph100%29.65 "Hg10 mi
11:50 pm
Fri, Jul 3
50 °FClear.3 mph94%29.65 "Hg10 mi
11:20 pm50 °FClear.6 mph94%29.65 "Hg10 mi
10:50 pm48 °FClear.6 mph94%29.65 "Hg10 mi
10:20 pm52 °FClear.6 mph88%29.65 "Hg10 mi
9:50 pm54 °FScattered clouds.6 mph88%29.62 "HgN/A
9:20 pm54 °FScattered clouds.9 mph88%29.62 "HgN/A
8:50 pm54 °FPartly sunny.10 mph94%29.62 "HgN/A
8:20 pm55 °FPartly sunny.12 mph88%29.62 "HgN/A
7:50 pm55 °FMore clouds than sun.10 mph88%29.62 "HgN/A
7:20 pm55 °FBroken clouds.12 mph94%29.59 "HgN/A
6:50 pm55 °FLight rain. Partly sunny.13 mph94%29.59 "HgN/A
6:20 pm55 °FBroken clouds.10 mph94%29.59 "HgN/A
5:50 pm57 °FLight rain. Partly sunny.7 mph94%29.59 "HgN/A
5:20 pm57 °FLight rain. Partly sunny.8 mph94%29.59 "HgN/A
Weather by CustomWeather, © 2020

See weather overview